Regional Weather Roundup
Issued by NWS Upton, NY

Current Version | Previous Version | Graphics & Text | Print | Product List | Glossary Off
Versions: 1 2 3 4 5 6 7 8 9 10 11 12 13 14 15 16 17 18 19 20 21 22 23 24 25 26 27 28 29 30 31 32 33 34 35 36 37 38 39 40 41 42 43 44 45 46 47 48 49 50

000
ASUS41 KOKX 310005
RWROKX

REGIONAL WEATHER ROUNDUP
NATIONAL WEATHER SERVICE NEW YORK NY
800 PM EDT SAT AUG 30 2014

NOTE: "FAIR" INDICATES FEW OR NO CLOUDS BELOW 12,000 FEET WITH NO
SIGNIFICANT WEATHER AND/OR OBSTRUCTIONS TO VISIBILITY.

NYZ071-072-176-178-NJZ106-104-310100-
NEW YORK CITY METRO AREA


CITY           SKY/WX    TMP DP  RH WIND       PRES   REMARKS
CENTRAL PARK   CLOUDY    74  63  68 CALM      30.18S
LAGUARDIA APRT CLOUDY    74  65  73 S14G20    30.15F
KENNEDY INTL   CLOUDY    74  65  73 S15       30.17F
NEWARK/LIBERTY CLOUDY    75  66  73 S8        30.15S
BRNX BOT. GARD   N/A     72  64  78 SW7       30.16F
TETERBORO      CLOUDY    75  64  68 S9        30.14S
$$

NYZ177-179-078>081-310100-
LONG ISLAND NEW YORK

CITY           SKY/WX    TMP DP  RH WIND       PRES   REMARKS
FARMINGDALE    CLOUDY    72  64  76 S13       30.17F
ISLIP          CLOUDY    72  63  73 S10       30.16F
SHIRLEY        CLOUDY    72  63  73 S9        30.18F
WESTHAMPTON    CLOUDY    71  63  75 S7        30.20
MONTAUK POINT    N/A     70  63  78 S5        30.20F
$$

NYZ052-065-067-310100-
HUDSON VALLEY

CITY           SKY/WX    TMP DP  RH WIND       PRES   REMARKS
WHITE PLAINS   MOCLDY    71  64  78 S6        30.16F
NEWBURGH       CLOUDY    73  64  73 SW9       30.16S
MONTGOMERY     CLOUDY    73  61  65 S7        30.13F
POUGHKEEPSIE   CLOUDY    74  63  68 S6        30.13S
ALBANY         PTCLDY    74  59  59 S12G18    30.09S
$$

NJZ001-105-106-008-010-013-015-019>022-104-310100-
NEW JERSEY

CITY           SKY/WX    TMP DP  RH WIND       PRES   REMARKS
NEWARK/LIBERTY CLOUDY    75  66  73 S8        30.15S
TETERBORO      CLOUDY    75  64  68 S9        30.14S
CALDWELL       CLOUDY    75  62  64 CALM      30.15F
MORRISTOWN     NOT AVBL
SOMERVILLE     CLOUDY    74  65  73 S3        30.13F
LINDEN         CLOUDY    79  67  67 S8        30.17S
SUSSEX         CLOUDY    74  63  68 CALM      30.14F
ANDOVER          N/A     71  64  78 CALM      30.16S
TRENTON        CLOUDY    74  63  68 S8        30.15S
MILLVILLE      CLOUDY   N/A N/A N/A SE5       30.16S
ATLANTIC CITY  CLOUDY    73  63  70 S7        30.17S
WRIGHTSTOWN    CLOUDY    71  62  72 S6        30.14S
TOMS RIVER     CLOUDY    72  66  83 S3        30.17F
BELMAR         MOCLDY    72  63  73 CALM      30.17S
$$

PAZ047>061-062-071-310100-
EASTERN PENNSYLVANIA

CITY           SKY/WX    TMP DP  RH WIND       PRES   REMARKS
PHILADELPHIA   CLOUDY    76  63  64 SE6       30.16R
ALLENTOWN      CLOUDY    75  62  64 S7        30.15S
SCRANTON       MOCLDY    72  61  68 VRB3      30.14S
$$

CTZ002-004>006-009-010-012-RIZ004-006-007-MAZ004-011-015-310100-
SOUTHERN NEW ENGLAND
 IN CT

CITY           SKY/WX    TMP DP  RH WIND       PRES   REMARKS
BRADLEY INTL   MOCLDY    72  60  66 S9        30.14S
HARTFORD       CLOUDY    71  61  70 S9        30.15S
DANBURY        CLOUDY    71  62  73 S6        30.17F
WTRBRY/OXFORD  CLOUDY    70  61  73 SW8       30.19S
BRIDGEPORT     CLOUDY    74  63  68 S13       30.16F
MERIDEN        CLOUDY    72  61  68 S7        30.17R
NEW HAVEN      CLOUDY    74  63  68 S8        30.17S
CHESTER        FAIR      70  63  78 SW6       30.19R
GROTON         CLEAR     69  63  81 S12       30.17S
WILLIMANTIC    MOCLDY    69  60  73 S5        30.18S

 IN RI

CITY           SKY/WX    TMP DP  RH WIND       PRES   REMARKS
PROVIDENCE     PTCLDY    67  57  70 S7        30.19S
BLOCK ISLAND   CLEAR     68  59  73 S7        30.19F
WESTERLY       CLEAR     69  62  78 S9        30.19F

 IN MA

CITY           SKY/WX    TMP DP  RH WIND       PRES   REMARKS
BOSTON         PTCLDY    69  59  70 S15       30.15S
WORCESTER      MOCLDY    66  59  78 S9        30.17F
WESTFIELD      MOCLDY    71  60  68 S10       30.13F
PROVINCETOWN   CLEAR     66  61  82 S14       30.19S
NANTUCKET      CLEAR     64  60  87 SE10      30.21S
$$

ANZ330-335-338-340-345-350-353-355-310100-
COASTAL MARINE OBSERVATIONS


STATION/POSITION TIME  SKY/WX   TEMP    WIND        PRES    VSBY  WAVE
                                AIR SEA DIR/SP/G                  HT/PER
                 (UTC)          (F)     (DEG/KT/KT) (MB)    (MI)  (FT/S)
NY HARB ENTRANCE NOT AVBL
4S FIRE IS       NOT AVBL
23SW MTP         0000                                 N/A           2/ 8
HUDSON CANYON    0000            73 73  160/ 10/ 12 1022.1          2/ 8
EXECUTION ROCKS  0000            74 74  200/ 14/ 19   N/A
WESTERN LI SOUND 0000            73     180/ 10/ 16   N/A           1/ 2
CENTRAL LI SOUND 0000            72 72  200/ 14/ 16   N/A           1/ 3
EASTERN LI SOUND 2300            70 69  190/ 12/ 16   N/A
ROBBINS REEF     0000            74     170/ 14/ 16   N/A
$$


>>>>>>>>>>>>>>>>>>>>>>>>>>>> KEY <<<<<<<<<<<<<<<<<<<<<<<<<<<
>                                                          <
>     SKY/WX - SKY CONDITION/PRESENT WEATHER               <
>     TMP    - TEMPERATURE IN FAHRENHEIT                   <
>     DP     - DEWPOINT IN FAHRENHEIT                      <
>     RH     - RELATIVE HUMIDITY IN PERCENT                <
>     WIND   - DIRECTION AND SPEED IN MPH                  <
>     PRES   - MEAN SEA LEVEL PRESSURE IN INCHES OF HG     <
>     WCI    - WIND CHILL INDEX                            <
>     VSB    - VISIBILITY IN MILES                         <
>     HX     - HEAT INDEX                                  <
>     TC     - TEMPERATURE IN CELSIUS                      <
>     VRB    - VARIABLE WIND DIRECTION                     <
>                                                          <
>>>>>>>>>>>>>>>>>>>>>>>>>>>> KEY <<<<<<<<<<<<<<<<<<<<<<<<<<<





USA.gov is the U.S. government's official web portal to all federal, state and local government web resources and services.